TimeEST,TemperatureF,Dew PointF,Humidity,Sea Level PressureIn,VisibilityMPH,Wind Direction,Wind SpeedMPH,Gust SpeedMPH,PrecipitationIn,Events,Conditions,WindDirDegrees,DateUTC
12:54 AM,12.9,-7.1,41,30.54,10.0,Calm,Calm,-,N/A,,Overcast,0,2013-02-08 05:54:00
1:54 AM,12.9,-7.1,41,30.54,10.0,Calm,Calm,-,0.00,,Overcast,0,2013-02-08 06:54:00
2:54 AM,12.0,-2.0,53,30.52,10.0,Calm,Calm,-,0.00,,Overcast,0,2013-02-08 07:54:00
3:18 AM,12.2,-0.4,57,30.49,10.0,NNE,5.8,-,0.00,,Overcast,30,2013-02-08 08:18:00
3:54 AM,10.9,1.0,64,30.51,10.0,NNE,4.6,-,0.00,,Overcast,20,2013-02-08 08:54:00
4:30 AM,8.6,1.4,73,30.47,2.0,NNE,5.8,-,0.00,Snow,Light Snow,20,2013-02-08 09:30:00
4:39 AM,8.6,1.4,73,30.47,1.5,NNE,5.8,-,0.00,Snow,Light Snow,20,2013-02-08 09:39:00
4:47 AM,8.6,3.2,79,30.47,1.2,North,5.8,-,0.00,Snow,Light Snow,360,2013-02-08 09:47:00
4:54 AM,9.0,3.9,80,30.50,1.2,NE,8.1,-,0.00,Snow,Light Snow,40,2013-02-08 09:54:00
5:27 AM,8.6,3.2,79,30.46,1.5,NE,4.6,-,0.00,Snow,Light Snow,40,2013-02-08 10:27:00
5:36 AM,8.6,3.2,79,30.46,1.5,NNE,4.6,-,0.00,Snow,Light Snow,30,2013-02-08 10:36:00
5:54 AM,8.1,3.9,83,30.50,1.8,NNE,4.6,-,0.01,Snow,Light Snow,30,2013-02-08 10:54:00
6:08 AM,8.6,3.2,79,30.46,1.2,NE,4.6,-,0.00,Snow,Light Snow,40,2013-02-08 11:08:00
7:04 AM,8.6,3.2,79,30.45,1.5,NNE,3.5,-,0.00,Snow,Light Snow,20,2013-02-08 12:04:00
7:28 AM,8.6,5.0,85,30.46,1.0,NNE,3.5,-,0.00,Snow,Light Snow,20,2013-02-08 12:28:00
7:39 AM,8.6,3.2,79,30.46,0.8,North,4.6,-,0.00,Snow,Light Snow,360,2013-02-08 12:39:00
7:54 AM,8.1,3.9,83,30.50,0.5,NNE,6.9,-,0.01,Fog-Snow,Snow,20,2013-02-08 12:54:00
8:54 AM,9.0,5.0,84,30.49,0.8,NNE,5.8,-,0.01,Snow,Light Snow,20,2013-02-08 13:54:00
9:13 AM,10.4,5.0,79,30.44,1.0,NNE,6.9,-,0.00,Snow,Light Snow,20,2013-02-08 14:13:00
9:29 AM,10.4,5.0,79,30.44,0.8,NNE,6.9,-,0.01,Snow,Light Snow,30,2013-02-08 14:29:00
9:43 AM,10.4,5.0,79,30.43,0.8,North,6.9,-,0.01,Snow,Light Snow,10,2013-02-08 14:43:00
9:54 AM,10.9,6.1,81,30.46,1.0,North,4.6,-,0.01,Snow,Light Snow,10,2013-02-08 14:54:00
10:15 AM,10.4,5.0,79,30.42,1.0,North,5.8,-,0.01,Snow,Light Snow,10,2013-02-08 15:15:00
10:54 AM,10.9,6.1,81,30.44,1.5,North,8.1,-,0.01,Snow,Light Snow,360,2013-02-08 15:54:00
11:12 AM,12.2,6.8,79,30.40,1.2,NNE,4.6,-,0.01,Snow,Light Snow,30,2013-02-08 16:12:00
11:38 AM,12.2,6.8,79,30.38,0.8,North,6.9,-,0.01,Snow,Light Snow,360,2013-02-08 16:38:00
11:54 AM,12.0,7.0,80,30.40,0.8,North,6.9,-,0.01,Snow,Light Snow,10,2013-02-08 16:54:00
12:10 PM,12.2,6.8,79,30.37,1.0,North,6.9,-,0.01,Snow,Light Snow,10,2013-02-08 17:10:00
12:27 PM,12.2,6.8,79,30.35,1.5,North,5.8,-,0.01,Snow,Light Snow,10,2013-02-08 17:27:00
12:54 PM,12.9,7.0,77,30.37,1.5,North,6.9,-,0.01,Snow,Light Snow,10,2013-02-08 17:54:00
1:54 PM,12.9,8.1,81,30.33,2.5,North,6.9,-,0.00,Snow,Light Snow,10,2013-02-08 18:54:00
2:27 PM,14.0,8.6,79,30.28,3.0,NNE,8.1,-,0.00,Snow,Light Snow,20,2013-02-08 19:27:00
2:35 PM,14.0,8.6,79,30.27,2.5,NNE,10.4,-,0.00,Snow,Light Snow,20,2013-02-08 19:35:00
2:54 PM,14.0,9.0,80,30.29,2.0,NNE,6.9,-,0.00,Snow,Light Snow,20,2013-02-08 19:54:00
3:03 PM,14.0,8.6,79,30.25,1.5,North,8.1,-,0.00,Snow,Light Snow,10,2013-02-08 20:03:00
3:11 PM,14.0,8.6,79,30.25,1.2,North,9.2,-,0.00,Snow,Light Snow,10,2013-02-08 20:11:00
3:24 PM,14.0,8.6,79,30.24,1.8,North,8.1,-,0.00,Snow,Light Snow,10,2013-02-08 20:24:00
3:38 PM,14.0,10.4,86,30.23,1.0,NNE,11.5,-,0.00,Snow,Light Snow,30,2013-02-08 20:38:00
3:46 PM,14.0,8.6,79,30.23,0.8,NNE,6.9,-,0.01,Snow,Light Snow,30,2013-02-08 20:46:00
3:54 PM,14.0,9.0,80,30.27,0.8,NNE,8.1,-,0.01,Snow,Light Snow,20,2013-02-08 20:54:00
4:54 PM,14.0,10.0,84,30.23,0.8,NNE,9.2,17.3,0.02,Snow,Light Snow,20,2013-02-08 21:54:00
5:05 PM,14.0,10.4,86,30.20,1.0,NNE,8.1,18.4,0.01,Snow,Light Snow,20,2013-02-08 22:05:00
5:54 PM,14.0,10.0,84,30.21,1.0,NNE,8.1,-,0.02,Snow,Light Snow,20,2013-02-08 22:54:00
6:17 PM,14.0,10.4,86,30.16,1.5,North,10.4,-,0.01,Snow,Light Snow,10,2013-02-08 23:17:00
6:47 PM,14.0,10.4,86,30.14,1.2,NNE,11.5,-,0.01,Snow,Light Snow,20,2013-02-08 23:47:00
6:54 PM,14.0,10.0,84,30.17,1.2,NNE,11.5,18.4,0.01,Snow,Light Snow,20,2013-02-08 23:54:00
7:05 PM,14.0,10.4,86,30.13,1.2,NNE,11.5,19.6,0.00,Snow,Light Snow,20,2013-02-09 00:05:00
7:54 PM,14.0,10.0,84,30.14,1.2,North,5.8,-,0.02,Snow,Light Snow,10,2013-02-09 00:54:00
8:17 PM,12.2,10.4,92,30.08,0.8,North,11.5,-,0.01,Snow,Light Snow,10,2013-02-09 01:17:00
8:40 PM,12.2,10.4,92,30.07,1.0,North,9.2,-,0.02,Snow,Light Snow,10,2013-02-09 01:40:00
8:54 PM,12.9,10.0,88,30.09,1.0,North,13.8,21.9,0.03,Snow,Light Snow,10,2013-02-09 01:54:00
9:21 PM,12.2,10.4,92,30.04,0.8,North,11.5,-,0.01,Snow,Light Snow,10,2013-02-09 02:21:00
9:50 PM,12.2,10.4,92,30.01,1.0,North,10.4,19.6,0.03,Snow,Light Snow,10,2013-02-09 02:50:00
9:54 PM,12.9,10.0,88,30.04,1.0,North,10.4,19.6,0.03,Snow,Light Snow,10,2013-02-09 02:54:00
10:03 PM,12.2,10.4,92,30.00,1.0,North,13.8,18.4,0.00,Snow,Light Snow,10,2013-02-09 03:03:00
10:50 PM,12.2,10.4,92,29.96,0.8,North,9.2,19.6,0.02,Snow,Light Snow,10,2013-02-09 03:50:00
10:54 PM,12.9,10.0,88,30.00,0.8,North,11.5,17.3,0.02,Snow,Light Snow,10,2013-02-09 03:54:00
11:54 PM,12.9,9.0,84,29.95,0.8,North,12.7,20.7,0.04,Snow,Light Snow,10,2013-02-09 04:54:00